Location: Unspecified
(41.5000°N, 0.0000°E)
Time: 04:38:28
(UTC+00:00)

Vanguard 2 - Pass Details

Date: 27 June 2019
Orbit: 553 x 2938 km, 32.9° (Epoch: 17 August)

Event Time Altitude Azimuth Distance (km) Brightness Sun altitude
Rises 07:13:30 0° 236° (WSW) 2,771 9.9 28.1°
Reaches altitude 10° 07:15:45 10° 224° (SW) 1,972 9.3 28.5°
Maximum altitude 07:19:33 28° 164° (SSE) 1,348 9.1 29.2°
Drops below altitude 10° 07:24:39 10° 106° (ESE) 2,696 11.6 30.1°
Sets 07:28:16 0° 97° (E) 4,031 12.3 30.8°
